Location: Bois
(48.8622°N, 1.3433°E)
Time: 20:45:26
(UTC+00:00)

Daily predictions for brighter satellites

Satellite Brightness Start Highest point End
(mag) Time Altitude Azimuth Time Altitude Azimuth Time Altitude Azimuth
Cosmos 2278 Rocket 2.3 16:52:44 10° NNW 16:58:20 56° ENE 17:03:53 10° SE
ARIANE 6 FM1 Upper Stage 4.5 16:55:07 10° NW 16:59:09 40° SW 17:03:12 10° SSE
Cosmos 2219 Rocket 2.7 16:55:05 10° SW 17:00:37 62° WNW 17:06:12 10° NNE
COSMO-SKYMED 1 4.1 16:58:17 10° NE 17:01:12 17° E 17:04:06 10° SE
ARGOS Delta rocket 3.9 16:57:51 10° SSE 17:02:20 50° ENE 17:06:40 10° N
ISS -2.2 16:59:58 10° SSW 17:02:45 24° SE 17:05:32 10° E
CZ-4C R/B 3.4 17:01:12 10° SSE 17:04:04 17° ESE 17:07:17 10° ENE
Cosmos 2084 Rocket 4.0 17:00:18 10° NW 17:04:20 61° SW 17:08:17 10° SSE
CSL-04 DEB 4.4 17:02:29 10° SSE 17:06:15 52° ENE 17:09:57 10° N
Meteor 1-21 4.4 17:03:11 10° S 17:08:37 56° E 17:14:09 10° NNE
Cosmos 1758 4.0 17:06:47 10° NNW 17:10:34 56° W 17:14:21 10° S
SL-14 R/B 3.8 17:07:09 10° SSW 17:10:50 59° WNW 17:14:36 10° N
USA 306 3.0 17:09:09 10° NW 17:10:50 21° N 17:12:55 10° ENE
CORIOLIS 4.2 17:05:42 10° SSE 17:11:07 85° ENE 17:16:36 10° NNW
Cosmos 1763 Rocket 3.6 17:06:32 10° S 17:11:37 56° ESE 17:16:39 10° NNE
Spot 4 Rocket 4.0 17:07:35 10° SSE 17:12:41 70° ENE 17:17:48 10° N
YAOGAN 1 3.9 17:10:41 10° ESE 17:13:38 18° ENE 17:16:35 10° NNE
Cosmos 1733 Rocket 3.4 17:10:05 10° N 17:14:16 41° ENE 17:18:27 10° SE
Cosmos 540 Rocket 3.7 17:12:26 10° S 17:17:21 49° ESE 17:22:18 10° NNE
Landsat 7 4.4 17:15:26 10° SE 17:19:36 33° ENE 17:23:48 10° N
Cosmos 2322 3.9 17:14:15 10° SSW 17:19:59 82° WNW 17:25:45 10° NNE
Cosmos 468 Rocket 4.4 17:16:26 10° S 17:21:17 42° ESE 17:26:09 10° NE
USA 215 3.6 17:16:33 10° NE 17:22:58 60° NNW 17:29:23 10° W
Cosmos 2228 Rocket 3.5 17:21:00 10° SSE 17:25:15 42° E 17:29:33 10° NNE
Cosmos 2279 Rocket 3.9 17:20:14 10° N 17:26:27 71° E 17:32:36 10° SSE
NOSS 8 (A) 4.0 17:25:22 10° NW 17:28:16 70° NE 17:31:39 10° SE
Cosmos 1898 Rocket 3.7 17:23:54 10° NNW 17:29:02 48° ENE 17:34:10 10° SE
Cosmos 841 Rocket 4.5 17:26:36 10° SSE 17:30:54 26° E 17:35:00 11° NE
Aureole 1 Rocket 4.4 17:25:25 10° NNW 17:33:07 66° ENE 17:40:02 10° SE
PSLV R/B 3.5 17:29:23 10° SSE 17:33:26 84° WSW 17:37:33 10° NNW
Okean 1-7 3.8 17:35:13 10° SSE 17:38:58 31° E 17:42:45 10° NNE
SL-16 R/B 3.6 17:35:38 10° SE 17:39:11 17° E 17:40:54 15° ENE
Cosmos 1980 3.8 17:33:43 10° S 17:39:12 57° ESE 17:44:44 10° NE
NOSS 8 (E) 4.5 17:38:07 10° SW 17:42:16 84° SE 17:44:41 17° NE
SMAP 4.0 17:38:03 10° S 17:42:35 51° W 17:47:09 10° NNW
Cosmos 1953 2.0 17:39:25 10° N 17:43:09 80° E 17:46:52 10° SSE
NOSS 0 Rocket 3.9 17:42:56 10° SSW 17:49:05 86° ESE 17:55:17 10° NNE
SKYMED 2 3.8 17:45:21 10° NNE 17:49:36 49° E 17:53:48 10° S
Cosmos 1818 3.9 17:46:20 10° NNW 17:51:36 45° NE 17:56:19 13° ESE
ATLAS 2AS CENTAUR R/B 2.9 17:46:29 10° NW 17:53:07 50° NE 17:59:05 12° ESE
NOSS 8 (H) 4.4 17:50:02 10° SW 17:54:00 87° NW 17:55:55 23° NE
Cosmos 2369 Rocket 3.1 17:49:56 10° NNW 17:54:38 26° NE 17:56:55 20° E
ACS3 Solar Sail 1.9 17:50:09 10° SSE 17:56:23 59° ENE 18:02:39 10° N
COSMOS 2428 3.3 17:50:52 10° SW 17:56:27 55° NW 18:02:05 10° NNE
IGS 5A 4.1 17:53:20 10° S 17:57:16 56° W 18:01:15 10° NNW
Cosmos 2333 Rocket 4.3 17:54:32 10° W 17:58:29 19° NW 18:02:28 10° N
Cosmos 372 Rocket 3.8 17:54:02 10° NNW 17:59:09 78° ENE 18:04:14 10° SSE
DNEPR-1 R/B 4.0 17:59:06 10° NW 18:03:55 67° SW 18:08:09 10° SSE
BREEZE-M DEB (TANK) 3.4 17:56:09 10° WSW 18:05:31 88° N 18:07:22 29° ENE
Cosmos 1908 Rocket 3.7 18:03:10 10° N 18:07:22 46° ENE 18:11:31 10° SSE
Cosmos 2322 Rocket 4.5 18:04:38 10° WNW 18:07:53 15° NNW 18:11:08 10° N
Cosmos 2360 Rocket 4.4 18:07:06 10° WNW 18:10:43 17° NW 18:14:20 10° N
Meteor 1-31 Rocket 2.4 18:09:07 10° SSE 18:12:40 74° ENE 18:16:15 10° N
Okean 3 4.0 18:09:08 10° SSW 18:13:10 57° WNW 18:17:16 10° N
EO 1 Delta rocket 3.7 18:08:46 10° NNE 18:13:31 70° E 18:18:09 10° S
Cosmos 1707 Rocket 4.0 18:09:33 10° SSW 18:13:58 64° WNW 18:18:23 10° N
Okean 2 3.7 18:13:03 10° SSW 18:16:57 64° WNW 18:20:55 10° N
Cosmos 2297 4.1 18:12:33 10° NNW 18:17:58 40° NE 18:20:17 28° E
Cosmos 1937 Rocket 3.4 18:13:59 10° NNW 18:19:10 86° ENE 18:24:20 10° SSE
CZ-2C R/B 2.9 18:22:18 41° NNE 18:22:18 41° NNE 18:24:50 10° N
Cosmos 2026 Rocket 4.2 18:16:41 10° SSE 18:22:42 46° E 18:28:43 10° NNE
Cosmos 858 Rocket 4.4 18:18:30 10° NNW 18:23:44 74° ENE 18:28:56 10° SSE
BREEZE-M DEB (TANK) 3.6 18:11:44 10° WSW 18:26:49 72° SSE 18:28:55 35° E
Cosmos 1943 Rocket 3.4 18:22:32 10° NW 18:27:54 44° WSW 18:33:11 10° S
RESURS DK-1 3.9 18:24:58 10° NW 18:28:40 36° WSW 18:32:21 10° S
Cosmos 1428 Rocket 4.4 18:23:19 10° S 18:29:28 68° E 18:35:35 10° NNE
YAOGAN 3 4.4 18:26:27 10° SSE 18:30:41 78° ENE 18:34:57 10° N
Cosmos 2237 Rocket 2.5 18:27:41 10° SW 18:33:20 66° WNW 18:37:58 16° NNE
BlueWalker 3 1.6 18:30:04 10° WNW 18:33:43 71° NNE 18:33:53 70° NE
COSMO-SKYMED 1 3.2 18:33:27 10° N 18:37:43 56° WNW 18:41:58 10° SSW
CZ-4B R/B 4.2 18:34:58 10° S 18:38:32 55° W 18:42:02 10° NNW
ISS -3.7 18:35:52 10° WSW 18:39:01 75° WNW 18:39:01 75° WNW
NOAA 6 4.4 18:35:23 10° S 18:40:27 66° WSW 18:45:35 10° NNW
Cosmos 2278 Rocket 4.3 18:37:21 10° NW 18:42:04 28° WSW 18:46:45 10° SSW
USA 306 4.0 18:39:54 10° NW 18:40:49 20° NW 18:40:49 20° NW
Cosmos 1782 Rocket 4.3 18:38:55 10° N 18:41:41 36° NNE 18:41:41 36° NNE
Cosmos 2344 4.0 18:36:26 10° WSW 18:43:42 55° NW 18:48:48 21° NE
Cosmos 2219 Rocket 4.5 18:42:18 10° WNW 18:45:45 16° NW 18:49:13 10° N
YAOGAN 1 3.2 18:44:57 10° S 18:49:09 56° W 18:53:22 10° NNW
CZ-4C R/B 1.9 18:46:53 10° SW 18:51:21 75° NW 18:53:05 43° NNE
YAOGAN 11 3.8 18:51:30 75° NE 18:51:48 81° ESE 18:56:05 10° SSW
Nadezhda 4 Rocket 4.3 18:47:01 10° SSW 18:53:04 64° WNW 18:59:13 10° N
ATLAS 5 CENTAUR R/B 2.3 18:52:53 10° SW 18:54:38 31° SSW 18:54:38 31° SSW
Cosmos 2195 Rocket 4.4 18:51:23 10° S 18:57:35 88° W 19:03:46 10° N
Meteor 1-24 Rocket 3.8 18:51:52 10° S 18:57:38 56° E 18:58:08 54° ENE
SPOT 1/Viking Rocket 3.7 18:55:15 10° S 19:00:25 74° WSW 19:05:35 10° NNW
Cosmos 1703 Rocket 3.7 18:56:12 10° SSW 19:00:38 72° W 19:02:12 39° N
Resurs 1-3 3.9 19:00:39 10° S 19:04:55 63° WSW 19:09:14 10° NNW
USA 215 3.9 19:03:32 36° NE 19:05:25 44° N 19:11:31 10° WNW
Meteor 2-5 Rocket 3.8 19:02:33 10° S 19:07:38 60° SE 19:07:38 60° SE
Cosmos 1703 4.4 19:07:38 10° SW 19:10:33 37° W 19:10:33 37° W
Cosmos 841 Rocket 4.3 19:07:19 10° SW 19:12:25 50° WNW 19:15:03 27° N
Cosmos 1656 Rocket 3.8 19:07:06 10° NNW 19:12:34 72° WSW 19:14:50 36° S
SL-16 R/B 2.1 19:16:51 10° SSW 19:22:32 84° WNW 19:22:50 80° N
Cosmos 1553 Rocket 3.8 19:18:03 10° N 19:23:51 75° NE 19:23:51 75° NE
ADEOS 3.8 19:29:31 65° NW 19:29:31 65° NW 19:34:02 10° NNW
Resurs 01 Rocket 4.2 19:34:52 12° NNW 19:34:52 12° NNW 19:35:08 10° NNW
Cosmos 2369 Rocket 2.4 19:33:34 10° NNW 19:38:45 66° W 19:38:45 66° W
ACS3 Solar Sail 3.7 19:34:51 10° SSW 19:40:17 29° W 19:45:46 10° NNW
ATLAS 2AS CENTAUR R/B 3.4 19:37:36 10° NW 19:44:03 49° WSW 19:46:35 33° S
Cosmos 839 Rocket 4.3 19:47:16 10° SW 19:52:33 60° SW 19:52:33 60° SW
Cosmos 2237 Rocket 4.5 20:14:50 10° WNW 20:18:33 17° NW 20:19:49 16° NNW
CZ-4C R/B 4.4 20:36:29 10° WNW 20:38:08 18° WNW 20:38:08 18° WNW
